Location: *
(32.8140°S, 174.6161°E)
Time: 21:23:22
(UTC+00:00)

H-2A R/B - Pass Details

Date: 10 December 2019
Orbit: 578 x 655 km, 98.5° (Epoch: 18 January)

Event Time Altitude Azimuth Distance (km) Brightness Sun altitude
Rises 15:11:55 0° 162° (SSE) 3,014 6.7 -20.0°
Reaches altitude 10° 15:14:13 10° 157° (SSE) 2,093 5.8 -19.7°
Maximum altitude 15:18:41 53° 79° (E) 814 2.8 -19.0°
Enters shadow 15:21:32 21° 10° (N) 1,468 3.6 -18.6°
